Location: *
(53.9002°N, 27.5624°E)
Time: 16:52:44
(UTC+00:00)

Cosmos 1862 - Pass Details

Date: 12 November 2019
Orbit: 538 x 557 km, 82.5° (Epoch: 07 December)

Event Time Altitude Azimuth Distance (km) Brightness Sun altitude
Rises 16:12:52 0° 351° (N) 2,709 6.9 -17.0°
Reaches altitude 10° 16:15:05 10° 356° (N) 1,813 5.9 -17.3°
Maximum altitude 16:19:00 54° 75° (ENE) 662 3.3 -17.9°
Enters shadow 16:21:34 20° 147° (SSE) 1,293 4.9 -18.3°
